TimeMDT,TemperatureF,Dew PointF,Humidity,Sea Level PressureIn,VisibilityMPH,Wind Direction,Wind SpeedMPH,Gust SpeedMPH,PrecipitationIn,Events,Conditions,WindDirDegrees,DateUTC
12:53 AM,12.0,5.0,73,30.29,8.0,SW,10.4,-,N/A,,Scattered Clouds,220,2013-03-24 06:53:00
1:53 AM,10.9,3.9,73,30.27,9.0,SW,10.4,-,N/A,,Scattered Clouds,220,2013-03-24 07:53:00
2:53 AM,10.0,1.9,70,30.25,10.0,SW,10.4,-,N/A,,Partly Cloudy,220,2013-03-24 08:53:00
3:53 AM,10.0,-0.0,64,30.24,10.0,SSW,10.4,-,N/A,,Partly Cloudy,210,2013-03-24 09:53:00
4:53 AM,9.0,-0.0,67,30.22,10.0,SSW,9.2,-,N/A,,Partly Cloudy,210,2013-03-24 10:53:00
5:53 AM,10.0,-0.0,64,30.22,10.0,SW,9.2,-,N/A,,Partly Cloudy,230,2013-03-24 11:53:00
6:53 AM,8.1,-2.0,64,30.22,10.0,SW,8.1,-,N/A,,Scattered Clouds,230,2013-03-24 12:53:00
7:53 AM,8.1,-2.0,64,30.23,10.0,SW,9.2,-,N/A,,Mostly Cloudy,220,2013-03-24 13:53:00
8:53 AM,12.9,1.0,59,30.22,10.0,SW,10.4,-,N/A,,Mostly Cloudy,230,2013-03-24 14:53:00
9:53 AM,15.1,3.0,59,30.23,10.0,WNW,3.5,-,N/A,,Mostly Cloudy,290,2013-03-24 15:53:00
10:53 AM,19.9,3.9,50,30.21,10.0,Calm,Calm,-,N/A,,Mostly Cloudy,0,2013-03-24 16:53:00
11:53 AM,19.0,7.0,59,30.23,10.0,North,4.6,-,N/A,,Mostly Cloudy,10,2013-03-24 17:53:00
12:53 PM,23.0,8.1,53,30.20,10.0,Calm,Calm,-,N/A,,Mostly Cloudy,0,2013-03-24 18:53:00
1:53 PM,25.0,7.0,46,30.19,10.0,Variable,5.8,-,0.00,,Mostly Cloudy,0,2013-03-24 19:53:00
2:53 PM,25.0,7.0,46,30.19,10.0,North,3.5,-,N/A,,Mostly Cloudy,10,2013-03-24 20:53:00
3:53 PM,24.1,7.0,48,30.20,10.0,North,4.6,-,N/A,,Mostly Cloudy,10,2013-03-24 21:53:00
4:53 PM,21.9,9.0,58,30.22,10.0,Calm,Calm,-,N/A,,Mostly Cloudy,0,2013-03-24 22:53:00
5:53 PM,24.8,8.6,50,30.07,10.0,Variable,3.5,-,N/A,,Mostly Cloudy,0,2013-03-24 23:53:00
6:53 PM,23.0,9.0,55,30.25,9.0,North,3.5,-,N/A,,Mostly Cloudy,350,2013-03-25 00:53:00
7:53 PM,21.0,12.9,71,30.29,4.0,North,12.7,-,0.00,Snow,Light Snow,350,2013-03-25 01:53:00
8:31 PM,19.4,15.8,86,30.13,2.5,North,8.1,-,0.00,Snow,Light Snow,350,2013-03-25 02:31:00
8:36 PM,19.4,15.8,86,30.14,1.5,North,9.2,-,0.00,Snow,Light Snow,350,2013-03-25 02:36:00
8:39 PM,19.4,15.8,86,30.14,1.2,North,12.7,-,0.00,Snow,Light Snow,10,2013-03-25 02:39:00
8:42 PM,19.4,15.8,86,30.14,1.5,NNE,12.7,-,0.00,Snow,Light Snow,30,2013-03-25 02:42:00
8:53 PM,19.0,15.1,85,30.30,1.8,NE,11.5,-,0.00,Snow,Light Snow,40,2013-03-25 02:53:00
9:05 PM,19.4,15.8,86,30.14,2.0,NE,9.2,-,0.00,Snow,Light Snow,40,2013-03-25 03:05:00
9:11 PM,19.4,14.0,80,30.15,3.0,NE,8.1,-,0.00,Snow,Light Snow,50,2013-03-25 03:11:00
9:53 PM,18.0,12.9,81,30.32,7.0,East,3.5,-,0.00,,Overcast,90,2013-03-25 03:53:00
10:53 PM,16.0,10.9,81,30.31,9.0,SE,3.5,-,N/A,,Overcast,140,2013-03-25 04:53:00
11:53 PM,17.1,12.0,81,30.32,9.0,ESE,3.5,-,N/A,,Overcast,120,2013-03-25 05:53:00